Location: Davayat
(45.9471°N, 3.1105°E)
Time: 17:45:08
(UTC+00:00)

ISS - Pass Details

Date: 01 December 2020
Orbit: 418 x 419 km, 51.6° (Epoch: 18 January)

Event Time Altitude Azimuth Distance (km) Brightness Sun altitude
Rises 17:52:55 0° 294° (WNW) 2,369 0.9 -18.3°
Reaches altitude 10° 17:55:08 10° 304° (WNW) 1,504 -0.4 -18.7°
Enters shadow 17:57:59 34° 360° (N) 713 -2.8 -19.1°
